Location: Sungai Bunut
(2.6333°N, 113.7333°E)
Time: 02:22:30
(UTC+00:00)

Explorer 11/Cluster Stage 4 - Visible Passes

Search period start: 13 April 2024 00:00
Search period end: 23 April 2024 00:00
Orbit: 465 x 1220 km, 28.8° (Epoch: 12 April)

Date Brightness Start Highest point End Pass type
(mag) Time Alt. Az. Time Alt. Az. Time Alt. Az.
17 Apr 9.8 21:50:58 10° NNE 21:51:33 10° NNE 21:52:09 10° NNE visible
18 Apr 9.8 21:33:19 10° NNE 21:34:22 10° NNE 21:35:27 10° NNE visible
19 Apr 9.7 21:15:50 10° N 21:17:11 11° NNE 21:18:32 10° NNE visible
20 Apr 7.9 11:51:30 10° SSW 11:52:31 14° S 11:52:31 14° S visible
20 Apr 9.6 20:58:27 10° N 20:59:59 11° NNE 21:01:33 10° NE visible
21 Apr 7.0 11:34:02 10° SSW 11:37:03 23° SSE 11:37:03 23° SSE visible
21 Apr 9.5 20:41:07 10° N 20:42:47 11° NNE 20:44:30 10° NE visible
22 Apr 6.7 11:16:34 10° SSW 11:20:16 28° SSE 11:21:40 22° ESE visible
22 Apr 9.4 20:23:50 10° N 20:25:35 11° NNE 20:27:25 10° NE visible
